Вернуться в каталог

STARLINK-5398

АктивенСвязьVLEO
NORAD 54866·PAYLOAD·🇺🇸 United States

Запущен Dec 28, 2022 с Cape Canaveral Space Force Station

Loading…

Ближайшие Пролёты (ближайшие 24 часа)

TLE

СвежийSource: CelesTrak SupGP

Эпоха: Sep 15, 2026, 01:43 UTC

1 54866C 22177AY  26258.07201389  .00056114  00000+0  20325-2 0  2589
2 54866  43.0026 131.6536 0001566 270.9259 275.8112 15.27549624    15

Отслеживайте STARLINK-5398 в реальном времени с AllMySat

Download on the App Store